[[{"header":{"parameterUnit":"m.s-1","parameterCategory":1,"la1":30.2991,"la2":30.254,"lo1":-89.0895,"lo2":-89.0444,"dy":0.0017,"dx":0.0017,"nx":28,"ny":28,"refTime":"2026-02-03T03:00:00:Z","depth":0,"parameterNumber":2,"parameterNumberName":"U-component_of_WINDS"},"data":[0,0,0,0,0,0,0,0,0,0,0,0,0,0,0,0,0,0,0,0,0,0,0,0,0,0,0,0,0,0,0,0,0,0,0,0,0,0,0,0,0,0,0,0,0,0,0,0,0,0,0,0,0,0,0,0,0,0,3.1254,3.1254,0,3.1279,3.128,3.128,3.1257,3.1256,3.1255,3.1254,3.1278,3.128,3.1281,0,0,0,0,0,0,0,0,0,0,0,0,0,3.1185,3.1187,3.1254,3.1254,3.1255,3.1279,3.128,3.128,3.1257,3.1256,3.1255,3.1254,3.1278,3.128,3.1281,0,0,0,0,0,0,0,0,0,0,0,0,0,3.1213,3.1187,3.1254,3.1246,3.1246,3.1279,3.128,3.128,3.1257,3.1256,3.1254,3.1253,3.1277,3.1279,3.1282,3.1324,0,0,3.1289,3.129,0,0,0,0,0,0,0,0,3.1212,3.1216,3.1247,3.1247,3.1246,3.1264,3.1264,3.1295,3.1258,3.1253,3.1254,3.1252,3.1274,3.1277,3.1285,3.1325,3.1326,3.1289,3.129,3.1291,3.1292,0,0,0,0,0,0,0,3.121,3.1215,3.1264,3.1248,3.1247,3.1241,3.1244,3.127,3.1271,3.1253,3.1251,3.1255,3.1274,3.1283,3.1285,3.1326,3.1289,3.1291,3.1292,3.1293,3.1404,3.1406,0,0,0,0,0,0,3.1209,3.1213,3.1263,3.1265,3.1225,3.1244,3.1246,3.1259,3.1271,3.1271,3.1256,3.1254,3.1279,3.1282,3.1286,3.1337,3.1291,3.1293,3.1295,3.1403,3.1405,3.1406,0,0,0,0,0,0,3.1208,3.1214,3.1262,3.1239,3.1244,3.1246,3.1261,3.1261,3.1269,3.1273,3.1273,3.1265,3.1278,3.1283,3.1315,3.1337,3.1294,3.1296,3.1401,3.1403,3.1405,3.1438,0,0,0,0,0,0,3.1206,3.1213,3.1229,3.1239,3.1246,3.1291,3.1263,3.1262,3.1273,3.1271,3.1281,3.1281,3.1278,3.1312,3.1317,3.134,3.1298,3.1399,3.1402,3.1405,3.1435,3.1441,3.1447,0,0,0,0,0,3.1203,3.1237,3.123,3.1236,3.1266,3.1292,3.1296,3.1291,3.1275,3.1291,3.1294,3.1281,3.1334,3.1315,3.1321,3.1345,3.1397,3.1401,3.1404,3.1433,3.144,3.1447,0,0,0,0,0,0,3.1228,3.1238,3.1231,3.1268,3.128,3.1289,3.1308,3.13,3.1315,3.1312,3.1305,3.1308,3.1342,3.1347,3.1326,3.1387,3.1363,3.1368,3.1382,3.139,3.1395,3.1393,3.13,0,0,0,0,0,3.1238,3.126,3.1267,3.1299,3.1306,3.1306,3.1318,3.1313,3.1325,3.1329,3.1334,3.1346,3.1365,3.1378,3.1395,3.1436,3.1438,3.1455,3.1461,3.1466,3.147,3.1493,3.1501,3.1418,3.1418,3.1418,0,0,3.1259,3.1267,3.128,3.1305,3.1313,3.1335,3.131,3.1334,3.1351,3.1333,3.1364,3.1368,3.1381,3.1418,3.1434,3.1422,3.1494,3.147,3.1474,3.1476,3.1497,3.1505,3.1512,3.142,3.142,3.142,0,0,3.1308,3.1316,3.1344,3.1354,3.1368,3.1368,3.1375,3.1386,3.1388,3.142,3.1407,3.1426,3.1459,3.1469,3.1478,3.1533,3.1522,3.1539,3.1569,3.1592,3.1598,3.1604,3.1624,3.1631,3.1544,3.1544,3.1544,0,3.1331,3.1364,3.136,3.1386,3.1397,3.1383,3.1412,3.1421,3.144,3.1448,3.1435,3.1477,3.1484,3.1524,3.1538,3.1546,3.1554,3.1538,3.1598,3.1603,3.1609,3.1628,3.1635,3.1546,3.1545,3.1545,3.1545,0,3.1393,3.1416,3.1438,3.1457,3.1471,3.1498,3.1498,3.1513,3.1508,3.151,3.1543,3.1552,3.1571,3.1581,3.1575,3.162,3.1612,3.1599,3.1575,3.1619,3.1636,3.1644,3.1549,3.1548,3.1547,3.1547,0,0,3.1457,3.1475,3.1483,3.1492,3.1507,3.1525,3.1552,3.1572,3.1585,3.1599,3.1622,3.1651,3.1639,3.165,3.1646,3.1666,3.1709,3.165,3.165,3.166,3.176,3.177,3.1778,3.1703,3.1704,3.1705,3.1759,0,3.1506,3.1554,3.1552,3.1596,3.1618,3.1606,3.163,3.1642,3.1645,3.1664,3.1667,3.1688,3.1671,3.1677,3.1696,3.17,3.1729,3.1696,3.1723,3.1725,3.172,3.1787,3.1798,3.1848,3.1766,3.1767,3.1768,0,3.157,3.1587,3.1634,3.1647,3.1656,3.1678,3.1697,3.1715,3.1729,3.173,3.1743,3.1737,3.1764,3.174,3.1779,3.1756,3.1768,3.1772,3.1774,3.1775,3.1748,3.1791,3.1864,3.1871,3.1779,3.1778,3.1777,0,3.1612,3.1647,3.168,3.1688,3.1704,3.172,3.1727,3.1739,3.1752,3.1769,3.1778,3.1797,3.1808,3.1824,3.1823,3.1806,3.1862,3.1838,3.1864,3.1864,3.1875,3.1875,3.1951,3.1883,3.1883,3.1883,3.1883,0,3.1667,3.1697,3.1699,3.1719,3.1752,3.175,3.1782,3.1788,3.1799,3.1821,3.1812,3.1832,3.1829,3.185,3.1849,3.1882,3.1886,3.1888,3.1888,3.1889,3.1889,3.1896,3.1892,3.1885,3.1885,3.1884,3.1884,0,3.1719,3.1722,3.1757,3.1771,3.1775,3.1798,3.1809,3.1829,3.1832,3.1859,3.1865,3.187,3.1894,3.1895,3.1922,3.1921,3.1961,3.1956,3.1956,3.1956,3.1981,3.1979,3.2065,3.2076,3.2001,3.2002,3.2002,0,3.1754,3.1777,3.1793,3.1807,3.1815,3.1838,3.1852,3.1851,3.1865,3.1884,3.1901,3.1924,3.1942,3.1981,3.1987,3.2008,3.2004,3.2032,3.2006,3.2008,3.2004,3.2003,3.2005,3.2037,3.2038,3.2038,3.2039,0,3.1816,3.1817,3.1837,3.1859,3.1875,3.1892,3.1907,3.1919,3.192,3.1937,3.1962,3.1976,3.2005,3.2028,3.2049,3.2056,3.2048,3.2047,3.2054,3.2056,3.2055,3.2056,3.197,3.2045,3.2044,3.2044,3.2044,3.2043,3.186,3.188,3.1895,3.1919,3.1931,3.1946,3.1965,3.1971,3.1992,3.2015,3.2014,3.2041,3.2056,3.2083,3.2093,3.2114,3.2104,3.2114,3.2117,3.2119,3.2122,3.2052,3.2118,3.2118,3.2117,3.2117,3.2117,0,3.1922,3.1932,3.1953,3.1976,3.1994,3.1986,3.2003,3.2019,3.2044,3.2058,3.2077,3.2106,3.2129,3.2138,3.216,3.2176,3.2173,3.2182,3.218,3.2182,3.213,3.2121,3.2184,3.2184,3.2184,3.2184,3.2184,3.2184,3.1956,3.199,3.1993,3.2032,3.2041,3.2069,3.208,3.2094,3.2105,3.2138,3.2158,3.2164,3.2176,3.22,3.2221,3.2223,3.2231,3.2242,3.2242,3.2193,3.2186,3.2179,3.2172,3.2244,3.2244,3.2293,3.2294,3.2294]},{"header":{"parameterUnit":"m.s-1","parameterCategory":1,"la1":30.2991,"la2":30.254,"lo1":-89.0895,"lo2":-89.0444,"dy":0.0017,"dx":0.0017,"nx":28,"ny":28,"refTime":"2026-02-03T03:00:00:Z","depth":0,"parameterNumber":3,"parameterNumberName":"V-component_of_WINDS"},"data":[0,0,0,0,0,0,0,0,0,0,0,0,0,0,0,0,0,0,0,0,0,0,0,0,0,0,0,0,0,0,0,0,0,0,0,0,0,0,0,0,0,0,0,0,0,0,0,0,0,0,0,0,0,0,0,0,0,0,-8.1838,-8.184,0,-8.2012,-8.2014,-8.2016,-8.1958,-8.1954,-8.195,-8.1947,-8.2119,-8.2126,-8.2134,0,0,0,0,0,0,0,0,0,0,0,0,0,-8.145,-8.1458,-8.1838,-8.184,-8.1842,-8.2012,-8.2014,-8.2017,-8.1958,-8.1954,-8.1949,-8.1945,-8.2116,-8.2125,-8.2135,0,0,0,0,0,0,0,0,0,0,0,0,0,-8.1621,-8.146,-8.1838,-8.1834,-8.1835,-8.2012,-8.2015,-8.2017,-8.1959,-8.1954,-8.1948,-8.1943,-8.2113,-8.2125,-8.2136,-8.2325,0,0,-8.2174,-8.2179,0,0,0,0,0,0,0,0,-8.1611,-8.1635,-8.1832,-8.1835,-8.1836,-8.1958,-8.1941,-8.212,-8.1961,-8.1912,-8.1947,-8.194,-8.2069,-8.2085,-8.2129,-8.2333,-8.234,-8.2175,-8.2182,-8.2187,-8.2191,0,0,0,0,0,0,0,-8.1599,-8.1627,-8.1907,-8.1835,-8.1838,-8.1822,-8.184,-8.1974,-8.202,-8.1916,-8.1912,-8.1934,-8.2069,-8.2118,-8.2133,-8.2343,-8.2174,-8.2185,-8.2193,-8.2197,-8.2711,-8.2717,0,0,0,0,0,0,-8.1587,-8.1618,-8.1901,-8.1912,-8.1708,-8.1834,-8.1854,-8.1924,-8.2019,-8.2028,-8.1939,-8.1931,-8.21,-8.2119,-8.2139,-8.2367,-8.2187,-8.2199,-8.2206,-8.2705,-8.2713,-8.2719,0,0,0,0,0,0,-8.1579,-8.1613,-8.1894,-8.1764,-8.1799,-8.1846,-8.1926,-8.1931,-8.198,-8.2036,-8.2043,-8.198,-8.2096,-8.2122,-8.228,-8.2372,-8.2204,-8.2215,-8.2697,-8.2707,-8.2716,-8.2824,0,0,0,0,0,0,-8.1568,-8.161,-8.1684,-8.1766,-8.1806,-8.2034,-8.1932,-8.1938,-8.2001,-8.1993,-8.2077,-8.2085,-8.2094,-8.2262,-8.2292,-8.2386,-8.2225,-8.2689,-8.2702,-8.2713,-8.2812,-8.2836,-8.2856,0,0,0,0,0,-8.1555,-8.1705,-8.1688,-8.1722,-8.1899,-8.204,-8.2062,-8.2071,-8.2009,-8.2082,-8.2119,-8.2083,-8.2357,-8.2279,-8.2312,-8.2411,-8.2684,-8.2698,-8.2712,-8.2803,-8.2831,-8.2856,0,0,0,0,0,0,-8.1629,-8.1716,-8.1697,-8.188,-8.1953,-8.203,-8.2122,-8.2101,-8.2191,-8.2179,-8.2184,-8.2203,-8.2366,-8.2404,-8.2315,-8.2599,-8.2511,-8.2533,-8.2568,-8.2596,-8.2618,-8.2605,-8.2235,0,0,0,0,0,-8.1668,-8.1777,-8.1846,-8.2,-8.2038,-8.2074,-8.2136,-8.2137,-8.2212,-8.2242,-8.2289,-8.2362,-8.2465,-8.2533,-8.263,-8.2818,-8.2835,-8.2902,-8.2924,-8.2941,-8.296,-8.3063,-8.3094,-8.2766,-8.2766,-8.2766,0,0,-8.1747,-8.1807,-8.1875,-8.2016,-8.2073,-8.2185,-8.21,-8.2222,-8.2304,-8.2259,-8.2413,-8.2451,-8.2532,-8.2706,-8.2785,-8.2743,-8.3055,-8.296,-8.2973,-8.2983,-8.3081,-8.3112,-8.314,-8.2776,-8.2774,-8.2773,0,0,-8.1948,-8.2005,-8.2141,-8.2201,-8.2289,-8.2313,-8.2345,-8.2426,-8.245,-8.2605,-8.2574,-8.2671,-8.2848,-8.2908,-8.2962,-8.3189,-8.3159,-8.322,-8.3335,-8.3435,-8.3461,-8.3484,-8.3566,-8.3595,-8.3238,-8.3239,-8.3239,0,-8.2035,-8.2204,-8.2212,-8.2338,-8.2401,-8.2368,-8.2505,-8.2562,-8.2677,-8.272,-8.2672,-8.2895,-8.2947,-8.3135,-8.3191,-8.3235,-8.3272,-8.321,-8.3457,-8.348,-8.3501,-8.3579,-8.361,-8.3246,-8.3245,-8.3244,-8.3243,0,-8.2306,-8.2424,-8.2523,-8.2638,-8.2712,-8.2842,-8.287,-8.2943,-8.2938,-8.2966,-8.3124,-8.3187,-8.3297,-8.3342,-8.3336,-8.353,-8.3501,-8.3455,-8.3367,-8.3539,-8.3613,-8.3643,-8.3256,-8.3253,-8.3251,-8.3249,0,0,-8.2559,-8.2679,-8.2715,-8.2768,-8.2864,-8.2955,-8.3084,-8.3194,-8.3258,-8.3338,-8.3446,-8.3598,-8.3557,-8.3617,-8.3618,-8.3707,-8.3884,-8.365,-8.3652,-8.3692,-8.4102,-8.4137,-8.4172,-8.3865,-8.3871,-8.3875,-8.4096,0,-8.2769,-8.2998,-8.3011,-8.3218,-8.3327,-8.3299,-8.3411,-8.3481,-8.3512,-8.3607,-8.3639,-8.3748,-8.3684,-8.3721,-8.3807,-8.3844,-8.3967,-8.3828,-8.3965,-8.3969,-8.3946,-8.421,-8.4247,-8.4452,-8.4125,-8.4129,-8.4133,0,-8.3045,-8.3137,-8.3357,-8.3439,-8.3486,-8.3587,-8.369,-8.3782,-8.3862,-8.3877,-8.3947,-8.3936,-8.4067,-8.3975,-8.4155,-8.4061,-8.4118,-8.4144,-8.4152,-8.4166,-8.4062,-8.4231,-8.4517,-8.4549,-8.4178,-8.4174,-8.4171,0,-8.3208,-8.3387,-8.3542,-8.3588,-8.3688,-8.376,-8.3804,-8.3879,-8.3945,-8.4035,-8.4078,-8.418,-8.4237,-8.4316,-8.4333,-8.4264,-8.4514,-8.4422,-8.453,-8.453,-8.4584,-8.458,-8.4884,-8.4619,-8.4619,-8.4618,-8.4618,0,-8.3442,-8.3577,-8.3617,-8.3713,-8.3864,-8.3876,-8.4025,-8.4064,-8.4131,-8.4232,-8.4212,-8.4308,-8.4324,-8.4423,-8.4436,-8.4584,-8.4609,-8.4625,-8.4627,-8.4628,-8.4626,-8.4664,-8.4651,-8.4626,-8.4625,-8.4623,-8.4622,0,-8.365,-8.3682,-8.3849,-8.3932,-8.3956,-8.4063,-8.4133,-8.4224,-8.4252,-8.4381,-8.4412,-8.4456,-8.4572,-8.4597,-8.4732,-8.4742,-8.4918,-8.4905,-8.4892,-8.4891,-8.4998,-8.4988,-8.5338,-8.5384,-8.5088,-8.5091,-8.5094,0,-8.3797,-8.3901,-8.3996,-8.4064,-8.4113,-8.4222,-8.4291,-8.4307,-8.4379,-8.4479,-8.4558,-8.4671,-8.4763,-8.4949,-8.4992,-8.5096,-8.5087,-8.5202,-8.5102,-8.5099,-8.5089,-8.5083,-8.5094,-8.5221,-8.5224,-8.5227,-8.5229,0,-8.4056,-8.4067,-8.4168,-8.4276,-8.4359,-8.4444,-8.4524,-8.458,-8.4607,-8.4689,-8.4809,-8.488,-8.5021,-8.5134,-8.5239,-8.5283,-8.5261,-8.5261,-8.5291,-8.5292,-8.5281,-8.529,-8.4945,-8.5252,-8.525,-8.5248,-8.5247,-8.5246,-8.4238,-8.433,-8.4412,-8.4526,-8.4589,-8.4665,-8.4755,-8.4797,-8.4897,-8.5015,-8.5018,-8.5148,-8.5226,-8.5365,-8.5415,-8.5517,-8.548,-8.5524,-8.5535,-8.5546,-8.5557,-8.5265,-8.5535,-8.5535,-8.5534,-8.5534,-8.5533,0,-8.4497,-8.4549,-8.4653,-8.4768,-8.4858,-8.4832,-8.492,-8.4996,-8.5112,-8.5187,-8.5279,-8.5417,-8.5527,-8.558,-8.5689,-8.576,-8.5753,-8.5788,-8.5783,-8.5794,-8.5582,-8.5546,-8.5792,-8.5792,-8.5792,-8.5792,-8.5792,-8.5792,-8.4642,-8.4796,-8.4818,-8.5004,-8.5054,-8.5184,-8.5237,-8.5307,-8.5367,-8.5523,-8.5616,-8.5651,-8.5717,-8.5831,-8.5931,-8.5943,-8.5984,-8.6025,-8.6033,-8.5834,-8.5808,-8.5783,-8.5749,-8.6034,-8.6034,-8.6235,-8.6237,-8.6239]}]]